This demonstration page uses our WeatherBlox Daily Observations layout. Learn more.

Left ArrowRight Arrow

39.51506, -84.39828

Hourly Observations for March 29, 2017

Temp ( °F °C ) Dew Point ( °F °C ) Humidity (%) Winds ( mph kmh ) Pressure ( in mb ) Visibility ( mi km ) Precip ( " mm )
12:15 am 00:15 Cloudy 55 12.5 46 7.6 72 72 Calm 30.18 1022 10 16 0.00 0.00
12:35 am 00:35 Cloudy 55 12.5 46 7.6 72 72 Calm 30.18 1022 10 16 0.00 0.00
12:55 am 00:55 Cloudy 54 12 45 7.1 72 72 Calm 30.18 1022 10 16 0.00 0.00
1:15 am 01:15 Cloudy 52 11 43 6.1 72 72 Calm 30.18 1022 10 16 0.00 0.00
1:35 am 01:35 Cloudy 52 11 43 6.1 72 72 Calm 30.18 1022 10 16 0.00 0.00
1:55 am 01:55 Cloudy 52 11 43 6.1 72 72 Calm 30.18 1022 10 16 0.00 0.00
2:15 am 02:15 Cloudy 52 11 43 5.9 71 71 Calm 30.18 1022 10 16 0.00 0.00
2:35 am 02:35 Cloudy 51 10.3 41 5.2 71 71 Calm 30.18 1022 10 16 0.00 0.00
2:55 am 02:55 Cloudy 49 9.6 40 4.7 72 72 Calm 30.18 1022 10 16 0.00 0.00
3:15 am 03:15 Cloudy 49 9.6 41 4.8 72 72 Calm 30.18 1022 10 16 0.00 0.00
3:35 am 03:35 Cloudy 49 9.6 41 5 73 73 Calm 30.18 1022 10 16 0.00 0.00
3:55 am 03:55 Cloudy 49 9.6 41 4.9 73 73 Calm 30.18 1022 10 16 0.00 0.00
4:15 am 04:15 Cloudy 49 9.6 41 4.8 72 72 Calm 30.18 1022 10 16 0.00 0.00
4:35 am 04:35 Cloudy 49 9.6 41 4.9 73 73 Calm 30.18 1022 10 16 0.00 0.00
4:55 am 04:55 Cloudy 49 9.6 40 4.3 70 70 Calm 30.18 1022 10 16 0.00 0.00
5:15 am 05:15 Cloudy 49 9.6 39 4.1 69 69 Calm 30.18 1022 10 16 0.00 0.00
5:35 am 05:35 Cloudy 49 9.6 39 4 68 68 Calm 30.18 1022 10 16 0.00 0.00
5:55 am 05:55 Cloudy 49 9.5 39 3.7 67 67 Calm 30.18 1022 10 16 0.00 0.00
6:15 am 06:15 Cloudy 47 8.2 36 2.3 67 67 Calm 30.18 1022 10 16 0.00 0.00
6:35 am 06:35 Cloudy 47 8.2 37 2.5 68 68 Calm 30.21 1023 10 16 0.00 0.00
6:55 am 06:55 Cloudy 47 8.2 37 2.6 68 68 Calm 30.21 1023 10 16 0.00 0.00
7:15 am 07:15 Cloudy 47 8.2 37 2.9 70 70 Calm 30.21 1023 10 16 0.00 0.00
7:35 am 07:35 Mostly Cloudy 45 7.1 36 2.1 71 71 Calm 30.21 1023 10 16 0.00 0.00
7:55 am 07:55 Mostly Cloudy 45 7.1 36 2.1 71 71 Calm 30.21 1023 10 16 0.00 0.00
8:15 am 08:15 Cloudy 45 7.4 35 1.9 68 68 Calm 30.21 1023 10 16 0.00 0.00
8:35 am 08:35 Cloudy 44 6.6 34 1.1 68 68 Calm 30.21 1023 10 16 0.00 0.00
8:55 am 08:55 Mostly Cloudy 43 5.9 32 0.2 67 67 Calm 30.24 1024 10 16 0.00 0.00
9:15 am 09:15 Partly Cloudy 42 5.6 33 0.5 70 70 Calm 30.27 1025 10 16 0.00 0.00
9:35 am 09:35 Cloudy 42 5.8 35 1.5 74 74 Calm 30.24 1024 10 16 0.00 0.00
9:55 am 09:55 Cloudy 43 6.1 35 1.8 74 74 Calm 30.24 1024 10 16 0.00 0.00
10:15 am 10:15 Cloudy 44 6.6 36 2.3 74 74 Calm 30.24 1024 10 16 0.00 0.00
10:35 am 10:35 Cloudy 45 7.1 37 2.5 73 73 Calm 30.24 1024 10 16 0.00 0.00
10:55 am 10:55 Cloudy 47 8.2 37 3 70 70 Calm 30.24 1024 10 16 0.00 0.00
11:15 am 11:15 Cloudy 49 9.6 39 4 68 68 Calm 30.24 1024 10 16 0.00 0.00
11:35 am 11:35 Cloudy 49 9.6 38 3.1 64 64 Calm 30.24 1024 10 16 0.00 0.00
11:55 am 11:55 Cloudy 49 9.6 37 2.6 62 62 Calm 30.21 1023 10 16 0.00 0.00
12:15 pm 12:15 Cloudy 52 11.1 39 3.8 61 61 Calm 30.21 1023 10 16 0.00 0.00
12:35 pm 12:35 Partly Cloudy 52 11.3 38 3.5 59 59 Calm 30.21 1023 10 16 0.00 0.00
12:55 pm 12:55 Mostly Cloudy 55 12.5 40 4.5 58 58 Calm 30.21 1023 10 16 0.00 0.00
1:15 pm 13:15 Partly Cloudy 55 12.5 39 3.7 55 55 Calm 30.21 1023 10 16 0.00 0.00
1:35 pm 13:35 Sunny 57 13.7 40 4.3 53 53 Calm 30.21 1023 10 16 0.00 0.00
1:55 pm 13:55 Sunny 57 13.8 39 3.7 51 51 Calm 30.21 1023 10 16 0.00 0.00
2:15 pm 14:15 Sunny 57 13.8 39 4 52 52 Calm 30.21 1023 10 16 0.00 0.00
2:35 pm 14:35 Sunny 57 13.8 39 3.7 51 51 Calm 30.21 1023 10 16 0.00 0.00
2:55 pm 14:55 Sunny 59 14.8 40 4.6 51 51 Calm 30.18 1022 10 16 0.00 0.00
3:15 pm 15:15 Sunny 59 15 40 4.5 50 50 Calm 30.18 1022 10 16 0.00 0.00
3:35 pm 15:35 Sunny 60 15.3 39 4.1 47 47 Calm 30.18 1022 10 16 0.00 0.00
3:55 pm 15:55 Sunny 60 15.3 40 4.2 48 48 Calm 30.15 1021 10 16 0.00 0.00
4:15 pm 16:15 Sunny 61 15.9 40 4.4 47 47 Calm 30.15 1021 10 16 0.00 0.00
4:35 pm 16:35 Sunny 61 15.9 40 4.4 47 47 Calm 30.15 1021 10 16 0.00 0.00
4:55 pm 16:55 Sunny 61 16 40 4.2 46 46 Calm 30.15 1021 10 16 0.00 0.00
5:15 pm 17:15 Sunny 61 16 39 4 45 45 Calm 30.15 1021 10 16 0.00 0.00
5:35 pm 17:35 Sunny 61 16 39 4 45 45 Calm 30.15 1021 10 16 0.00 0.00
5:55 pm 17:55 Sunny 61 16 38 3.6 44 44 Calm 30.12 1020 10 16 0.00 0.00
6:15 pm 18:15 Sunny 61 16 39 4 45 45 Calm 30.12 1020 10 16 0.00 0.00
6:35 pm 18:35 Sunny 61 16 38 3.2 43 43 Calm 30.09 1019 10 16 0.00 0.00
6:55 pm 18:55 Partly Cloudy 60 15.4 38 3.1 44 44 Calm 30.09 1019 10 16 0.00 0.00
7:15 pm 19:15 Partly Cloudy 60 15.5 38 3.1 44 44 Calm 30.09 1019 10 16 0.00 0.00
7:35 pm 19:35 Sunny 60 15.3 38 3.2 45 45 Calm 30.09 1019 10 16 0.00 0.00
7:55 pm 19:55 Partly Cloudy 60 15.3 38 3.3 45 45 Calm 30.09 1019 10 16 0.00 0.00
8:15 pm 20:15 Partly Cloudy 57 14 37 3 48 48 Calm 30.09 1019 10 16 0.00 0.00
8:35 pm 20:35 Mostly Cloudy 59 15.1 39 3.7 47 47 Calm 30.12 1020 10 16 0.00 0.00
8:55 pm 20:55 Mostly Cloudy 57 13.8 38 3.1 49 49 Calm 30.12 1020 10 16 0.00 0.00
9:15 pm 21:15 Cloudy 57 13.8 39 4.1 52 52 Calm 30.12 1020 10 16 0.00 0.00
9:35 pm 21:35 Cloudy 57 13.8 41 4.8 55 55 Calm 30.09 1019 10 16 0.00 0.00
9:55 pm 21:55 Cloudy 57 13.8 39 3.8 51 51 Calm 30.09 1019 10 16 0.00 0.00
10:15 pm 22:15 Cloudy 57 13.8 38 3.5 50 50 Calm 30.09 1019 10 16 0.00 0.00
10:35 pm 22:35 Partly Cloudy 57 13.8 38 3.3 49 49 Calm 30.06 1018 10 16 0.00 0.00
10:55 pm 22:55 Partly Cloudy 57 13.8 37 2.9 48 48 Calm 30.03 1017 10 16 0.00 0.00
11:15 pm 23:15 Clear 57 13.8 38 3.1 49 49 Calm 30.06 1018 10 16 0.00 0.00
11:35 pm 23:35 Clear 57 13.8 39 3.9 52 52 Calm 30.06 1018 10 16 0.00 0.00
11:55 pm 23:55 Clear 55 12.5 38 3.2 53 53 Calm 30.06 1018 10 16 0.00 0.00

Powered by AerisWeather